Time,TemperatureF,DewpointF,PressureIn,WindDirection,WindDirectionDegrees,WindSpeedMPH,WindSpeedGustMPH,Humidity,HourlyPrecipIn,Conditions,Clouds,dailyrainin,SolarRadiationWatts/m^2,UVIndex,SoftwareType,DateUTC
2026-05-08 00:04:56,53.5,52.1,29.94,NNW,328,0.4,2.4,95,0.00,,,0.00,0,0,n/a,2026-05-08T04:04:56Z
2026-05-08 00:09:59,53.5,52.1,29.94,NW,322,1,2.4,95,0.00,,,0.00,0,0,n/a,2026-05-08T04:09:59Z
2026-05-08 00:14:58,53.5,52.1,29.95,NW,313,0.1,2.3,95,0.00,,,0.00,0,0,n/a,2026-05-08T04:14:58Z
2026-05-08 00:19:57,53.5,52.1,29.95,NW,313,0,0,95,0.00,,,0.00,0,0,n/a,2026-05-08T04:19:57Z
2026-05-08 00:24:59,53.5,52.1,29.95,NW,313,0.3,1.2,95,0.00,,,0.00,0,0,n/a,2026-05-08T04:24:59Z
2026-05-08 00:29:59,53.5,52.1,29.95,NW,313,0.2,1.2,95,0.00,,,0.00,0,0,n/a,2026-05-08T04:29:59Z
2026-05-08 00:34:58,53.4,52,29.95,NW,313,0,1.2,95,0.00,,,0.00,0,0,n/a,2026-05-08T04:34:58Z
2026-05-08 00:39:57,53.4,52,29.95,NW,313,0.5,2.4,95,0.00,,,0.00,0,0,n/a,2026-05-08T04:39:57Z
2026-05-08 00:44:56,53.4,52,29.96,NW,313,0,1.2,95,0.00,,,0.00,0,0,n/a,2026-05-08T04:44:56Z
2026-05-08 00:49:59,53.4,52,29.96,NW,313,0.6,2.4,95,0.00,,,0.00,0,0,n/a,2026-05-08T04:49:59Z
2026-05-08 00:54:57,53.3,51.9,29.96,NNW,348,1,2.4,95,0.00,,,0.00,0,0,n/a,2026-05-08T04:54:57Z
2026-05-08 00:59:56,53.3,51.9,29.96,North,350,0.4,2.3,95,0.00,,,0.00,0,0,n/a,2026-05-08T04:59:56Z
2026-05-08 01:04:56,53.2,51.8,29.95,North,350,1.1,2.4,95,0.00,,,0.00,0,0,n/a,2026-05-08T05:04:56Z
2026-05-08 01:09:57,53.1,51.7,29.95,North,350,1.1,2.4,95,0.00,,,0.00,0,0,n/a,2026-05-08T05:09:57Z
2026-05-08 01:14:56,52.9,51.5,29.95,North,350,0.8,2.4,95,0.00,,,0.00,0,0,n/a,2026-05-08T05:14:56Z
2026-05-08 01:19:58,52.8,51.4,29.95,North,350,0.2,1.2,95,0.00,,,0.00,0,0,n/a,2026-05-08T05:19:58Z
2026-05-08 01:24:57,52.6,51.2,29.95,North,350,0,1.2,95,0.00,,,0.00,0,0,n/a,2026-05-08T05:24:57Z
2026-05-08 01:29:55,52.5,51.1,29.95,North,350,0.1,1.2,95,0.00,,,0.00,0,0,n/a,2026-05-08T05:29:55Z
2026-05-08 01:34:59,52.4,51,29.95,North,350,0,0,95,0.00,,,0.00,0,0,n/a,2026-05-08T05:34:59Z
2026-05-08 01:39:58,52.3,50.9,29.95,North,350,0,1.2,95,0.00,,,0.00,0,0,n/a,2026-05-08T05:39:58Z
2026-05-08 01:44:57,52.2,50.8,29.96,North,350,0,0,95,0.00,,,0.00,0,0,n/a,2026-05-08T05:44:57Z
2026-05-08 01:49:59,52.1,50.7,29.96,North,350,0.8,2.4,95,0.00,,,0.00,0,0,n/a,2026-05-08T05:49:59Z
2026-05-08 01:54:58,52.1,50.7,29.96,North,350,1.1,2.4,95,0.00,,,0.00,0,0,n/a,2026-05-08T05:54:58Z
2026-05-08 01:59:57,52.1,50.7,29.96,North,350,0.2,1.2,95,0.00,,,0.00,0,0,n/a,2026-05-08T05:59:57Z
2026-05-08 02:04:57,52.1,50.7,29.96,North,350,0.6,2.4,95,0.00,,,0.00,0,0,n/a,2026-05-08T06:04:57Z
2026-05-08 02:09:57,52,50.6,29.96,North,350,0,1.2,95,0.00,,,0.00,0,0,n/a,2026-05-08T06:09:57Z
2026-05-08 02:14:56,52,50.6,29.96,North,350,0.6,1.2,95,0.00,,,0.00,0,0,n/a,2026-05-08T06:14:56Z
2026-05-08 02:19:59,52,50.6,29.96,North,350,0.6,1.2,95,0.00,,,0.00,0,0,n/a,2026-05-08T06:19:59Z
2026-05-08 02:24:58,52,50.6,29.96,NNW,329,0.9,2.4,95,0.00,,,0.00,0,0,n/a,2026-05-08T06:24:58Z
2026-05-08 02:29:56,52,50.6,29.96,NW,319,0.9,2.4,95,0.00,,,0.00,0,0,n/a,2026-05-08T06:29:56Z
2026-05-08 02:34:59,52.1,50.8,29.96,NW,319,0.4,1.2,95.3,0.00,,,0.00,0,0,n/a,2026-05-08T06:34:59Z
2026-05-08 02:39:59,52.2,51,29.96,NW,319,0.1,1.2,95.7,0.00,,,0.00,0,0,n/a,2026-05-08T06:39:59Z
2026-05-08 02:44:57,52.3,51.2,29.96,NW,319,0,0,96,0.00,,,0.00,0,0,n/a,2026-05-08T06:44:57Z
2026-05-08 02:49:56,52.3,51.2,29.96,NW,319,0,0,95.9,0.00,,,0.00,0,0,n/a,2026-05-08T06:49:56Z
2026-05-08 02:54:59,52.3,51.2,29.96,NW,319,0,0,96,0.00,,,0.00,0,0,n/a,2026-05-08T06:54:59Z
2026-05-08 02:59:58,52.3,51.2,29.97,NW,319,0,0,96,0.00,,,0.00,0,0,n/a,2026-05-08T06:59:58Z
2026-05-08 03:04:58,52.4,51.3,29.97,NW,319,0.4,1.2,95.8,0.00,,,0.00,0,0,n/a,2026-05-08T07:04:58Z
2026-05-08 03:09:59,52.5,51.4,29.97,NW,319,0.8,1.2,96,0.00,,,0.00,0,0,n/a,2026-05-08T07:09:59Z
2026-05-08 03:14:58,52.7,51.6,29.97,NW,319,0.3,1.2,96,0.00,,,0.00,0,0,n/a,2026-05-08T07:14:58Z
2026-05-08 03:19:57,52.7,51.6,29.97,NW,319,0.4,1.2,96,0.00,,,0.00,0,0,n/a,2026-05-08T07:19:57Z
2026-05-08 03:24:56,52.7,51.6,29.97,NNW,348,1.2,3.6,96,0.00,,,0.00,0,0,n/a,2026-05-08T07:24:56Z
2026-05-08 03:29:59,52.6,51.2,29.97,NNE,14,2,3.6,95.2,0.00,,,0.00,0,0,n/a,2026-05-08T07:29:59Z
2026-05-08 03:34:57,52.4,51,29.97,NNE,13,1.6,2.4,95,0.00,,,0.00,0,0,n/a,2026-05-08T07:34:57Z
2026-05-08 03:39:57,52.3,51.1,29.97,North,10,1.2,2.4,95.6,0.00,,,0.00,0,0,n/a,2026-05-08T07:39:57Z
2026-05-08 03:44:56,52.3,51.2,29.97,North,5,1.1,2.4,96,0.00,,,0.00,0,0,n/a,2026-05-08T07:44:56Z
2026-05-08 03:49:59,52.2,51.1,29.97,North,350,1.3,2.4,96,0.00,,,0.00,0,0,n/a,2026-05-08T07:49:59Z
2026-05-08 03:54:57,52.3,51.2,29.97,North,352,1.5,3.6,96,0.00,,,0.00,0,0,n/a,2026-05-08T07:54:57Z
2026-05-08 03:59:59,52.3,51.2,29.97,North,358,1.6,3.6,96,0.00,,,0.00,0,0,n/a,2026-05-08T07:59:59Z
2026-05-08 04:04:59,52.3,51.2,29.97,NNW,340,2,3.6,96,0.00,,,0.00,0,0,n/a,2026-05-08T08:04:59Z
2026-05-08 04:09:59,52.3,51.2,29.97,NNW,331,1.2,3.5,96,0.00,,,0.00,0,0,n/a,2026-05-08T08:09:59Z
2026-05-08 04:14:59,52.3,51.2,29.98,NNW,336,1.1,2.4,96,0.00,,,0.00,0,0,n/a,2026-05-08T08:14:59Z
2026-05-08 04:19:57,52.3,51.2,29.98,NNW,336,0.5,2.3,96,0.00,,,0.00,0,0,n/a,2026-05-08T08:19:57Z
2026-05-08 04:24:56,52.3,51.2,29.98,NNW,336,0.3,1.2,96,0.00,,,0.00,0,0,n/a,2026-05-08T08:24:56Z
2026-05-08 04:29:59,52.2,51.1,29.98,NNW,336,0,1.2,96,0.00,,,0.00,0,0,n/a,2026-05-08T08:29:59Z
2026-05-08 04:34:57,52.1,50.8,29.98,NNW,339,0.8,2.4,95.3,0.00,,,0.00,0,0,n/a,2026-05-08T08:34:57Z
2026-05-08 04:39:57,52,50.7,29.98,NNW,342,0.8,2.4,95.4,0.00,,,0.00,0,0,n/a,2026-05-08T08:39:57Z
2026-05-08 04:44:56,51.9,50.6,29.98,NNW,342,0.5,1.2,95.2,0.00,,,0.00,0,0,n/a,2026-05-08T08:44:56Z
2026-05-08 04:49:58,51.9,50.5,29.98,NNW,342,0.4,1.2,95.2,0.00,,,0.00,0,0,n/a,2026-05-08T08:49:58Z
2026-05-08 04:54:57,51.8,50.6,29.98,NNW,342,0.8,2.4,95.8,0.00,,,0.00,0,0,n/a,2026-05-08T08:54:57Z
2026-05-08 04:59:56,51.7,50.6,29.99,NNW,341,1.5,2.4,96,0.00,,,0.00,0,0,n/a,2026-05-08T08:59:56Z
2026-05-08 05:04:59,51.7,50.6,29.99,NNW,340,1.4,2.4,96,0.00,,,0.00,0,0,n/a,2026-05-08T09:04:59Z
2026-05-08 05:09:56,51.6,50.5,29.99,NNW,340,0.7,1.2,96,0.00,,,0.00,0,0,n/a,2026-05-08T09:09:56Z
2026-05-08 05:14:59,51.5,50.2,29.99,NNW,340,0.5,1.2,95.5,0.00,,,0.00,0,0,n/a,2026-05-08T09:14:59Z
2026-05-08 05:19:58,51.2,49.8,29.99,NNW,340,0.1,1.2,95,0.00,,,0.00,0,0,n/a,2026-05-08T09:19:58Z
2026-05-08 05:24:56,51,49.6,29.99,NNW,340,0,0,95,0.00,,,0.00,0,0,n/a,2026-05-08T09:24:56Z
2026-05-08 05:29:59,50.7,49.3,30.00,NNW,340,0,0,95,0.00,,,0.00,0,0,n/a,2026-05-08T09:29:59Z
2026-05-08 05:34:58,50.4,49,30.00,NNW,340,0,0,95,0.00,,,0.00,0,0,n/a,2026-05-08T09:34:58Z
2026-05-08 05:39:57,50.1,48.7,30.00,NNW,340,0,0,95,0.00,,,0.00,0,0,n/a,2026-05-08T09:39:57Z
2026-05-08 05:44:59,49.8,48.4,30.00,NNW,340,0,0,95,0.00,,,0.00,0,0,n/a,2026-05-08T09:44:59Z
2026-05-08 05:49:59,49.5,48.1,30.00,NNW,340,0,0,95,0.00,,,0.00,0,0,n/a,2026-05-08T09:49:59Z
2026-05-08 05:54:57,49.1,47.7,30.00,NNW,340,0,0,95,0.00,,,0.00,0,0,n/a,2026-05-08T09:54:57Z
2026-05-08 05:59:57,48.7,47.3,30.00,NNW,341,0,0,95,0.00,,,0.00,0,0,n/a,2026-05-08T09:59:57Z
2026-05-08 06:04:56,48.4,47,30.00,NNW,340,0,0,95,0.00,,,0.00,0,0,n/a,2026-05-08T10:04:56Z
2026-05-08 06:09:58,48.2,46.8,30.00,NNW,340,0,0,95,0.00,,,0.00,0,0,n/a,2026-05-08T10:09:58Z
2026-05-08 06:14:58,48,46.6,30.01,NNW,341,0,0,95,0.00,,,0.00,0,0,n/a,2026-05-08T10:14:58Z
2026-05-08 06:19:57,48,46.6,30.01,NNW,340,0.4,1.2,95,0.00,,,0.00,7,0,n/a,2026-05-08T10:19:57Z
2026-05-08 06:24:59,47.9,46.5,30.01,NNW,340,0.5,1.2,95,0.00,,,0.00,11,0,n/a,2026-05-08T10:24:59Z
2026-05-08 06:29:58,47.8,46.4,30.01,NNW,341,0,0,95,0.00,,,0.00,18,0,n/a,2026-05-08T10:29:58Z
2026-05-08 06:34:56,47.8,46.4,30.01,NNW,341,0,0,95,0.00,,,0.00,21,0,n/a,2026-05-08T10:34:56Z
2026-05-08 06:39:56,47.6,46.2,30.01,NNW,340,0,0,95,0.00,,,0.00,26,0,n/a,2026-05-08T10:39:56Z
2026-05-08 06:44:59,47.6,46.2,30.02,NNW,340,0.4,1.2,95,0.00,,,0.00,39,0,n/a,2026-05-08T10:44:59Z
2026-05-08 06:49:57,47.7,46.3,30.02,NNW,333,0.1,1.2,95.2,0.00,,,0.00,62,0,n/a,2026-05-08T10:49:57Z
2026-05-08 06:54:59,48.1,46.9,30.02,NNE,28,0.4,1.2,95.6,0.00,,,0.00,72,0,n/a,2026-05-08T10:54:59Z
2026-05-08 06:59:57,48.9,47.8,30.03,NNW,340,1.1,3.6,96,0.00,,,0.00,56,0,n/a,2026-05-08T10:59:57Z
2026-05-08 07:04:56,49.4,48.3,30.03,NW,324,1.5,4.8,96,0.00,,,0.00,76,0,n/a,2026-05-08T11:04:56Z
2026-05-08 07:09:56,49.8,48.7,30.03,North,350,1.7,3.6,96,0.00,,,0.00,86,0,n/a,2026-05-08T11:09:56Z
2026-05-08 07:14:59,50.1,49,30.03,NW,319,1.9,4.8,96,0.00,,,0.00,109,0,n/a,2026-05-08T11:14:59Z
2026-05-08 07:19:58,50.4,49.3,30.03,NNW,348,2,3.6,96,0.00,,,0.00,109,0,n/a,2026-05-08T11:19:58Z
2026-05-08 07:24:59,50.7,49.6,30.03,NW,326,2.3,3.6,96,0.00,,,0.00,127,0,n/a,2026-05-08T11:24:59Z
2026-05-08 07:29:58,51,49.9,30.04,NNW,334,2.8,4.8,96,0.00,,,0.00,127,0,n/a,2026-05-08T11:29:58Z
2026-05-08 07:34:56,51.2,50.1,30.04,NW,312,2.6,4.8,96,0.00,,,0.00,214,0,n/a,2026-05-08T11:34:56Z
2026-05-08 07:39:58,51.4,50.3,30.04,NW,306,2.7,4.8,96,0.00,,,0.00,214,0,n/a,2026-05-08T11:39:58Z
2026-05-08 07:44:56,51.7,50.6,30.04,NW,306,2.2,4.6,96,0.00,,,0.00,211,0.5,n/a,2026-05-08T11:44:56Z
2026-05-08 07:49:58,52,50.9,30.04,NW,308,2.7,6,96,0.00,,,0.00,225,0.6,n/a,2026-05-08T11:49:58Z
2026-05-08 07:54:56,52.3,51.2,30.04,NNW,332,3.6,7.2,96,0.00,,,0.00,236,0.6,n/a,2026-05-08T11:54:56Z
2026-05-08 07:59:59,52.5,51.4,30.05,NNW,336,4.2,7.2,96,0.00,,,0.00,251,0.7,n/a,2026-05-08T11:59:59Z
2026-05-08 08:04:58,52.6,51.5,30.05,NW,324,4.9,10.8,96,0.00,,,0.00,264,0.8,n/a,2026-05-08T12:04:58Z
2026-05-08 08:09:58,52.9,51.8,30.05,NNW,336,3.8,7.2,96,0.00,,,0.00,279,0.9,n/a,2026-05-08T12:09:58Z
2026-05-08 08:14:56,53.4,52.2,30.06,NNW,337,3.5,8.4,95.6,0.00,,,0.00,292,0.9,n/a,2026-05-08T12:14:56Z
2026-05-08 08:19:58,53.9,52.5,30.06,NNW,331,3.3,8.1,94.9,0.00,,,0.00,309,1,n/a,2026-05-08T12:19:58Z
2026-05-08 08:24:56,54.5,52.7,30.06,North,352,2.9,6,93.6,0.00,,,0.00,329,1.1,n/a,2026-05-08T12:24:56Z
2026-05-08 08:29:57,55.2,53.1,30.06,NNW,346,2.7,6,92.6,0.00,,,0.00,346,1.2,n/a,2026-05-08T12:29:57Z
2026-05-08 08:34:59,55.9,53.2,30.06,NNW,342,3.8,8.4,90.7,0.00,,,0.00,362,1.3,n/a,2026-05-08T12:34:59Z
2026-05-08 08:39:58,56.5,53.1,30.06,NNW,348,4.3,8.4,88.4,0.00,,,0.00,376,1.3,n/a,2026-05-08T12:39:58Z
2026-05-08 08:44:56,57,52.5,30.06,North,349,5.2,8.4,84.9,0.00,,,0.00,390,1.4,n/a,2026-05-08T12:44:56Z
2026-05-08 08:49:57,57.3,52.4,30.06,North,353,4.2,9.6,83.4,0.00,,,0.00,401,1.5,n/a,2026-05-08T12:49:57Z
2026-05-08 08:54:59,57.7,51.8,30.06,NNW,347,5.9,10.8,80.7,0.00,,,0.00,417,1.7,n/a,2026-05-08T12:54:59Z
2026-05-08 08:59:57,58,51.8,30.07,North,350,4.8,8.4,79.7,0.00,,,0.00,429,1.8,n/a,2026-05-08T12:59:57Z
2026-05-08 09:04:56,58.6,52.4,30.07,NNE,22,2.7,6.9,79.9,0.00,,,0.00,443,1.9,n/a,2026-05-08T13:04:56Z
2026-05-08 09:09:56,59.2,52.5,30.07,North,1,4.1,7.2,78.5,0.00,,,0.00,457,2,n/a,2026-05-08T13:09:56Z
2026-05-08 09:14:59,59.7,52.5,30.07,North,4,3.1,7.2,77,0.00,,,0.00,471,2.1,n/a,2026-05-08T13:14:59Z
2026-05-08 09:19:57,60.1,52.4,30.07,NNE,31,4.4,13.2,75.6,0.00,,,0.00,483,2.1,n/a,2026-05-08T13:19:57Z
2026-05-08 09:24:58,60.5,52.4,30.07,NNE,18,4.6,7.2,74.7,0.00,,,0.00,496,2.1,n/a,2026-05-08T13:24:58Z
2026-05-08 09:29:56,60.8,52.1,30.07,NNE,23,4.3,8.4,72.9,0.00,,,0.00,510,2.2,n/a,2026-05-08T13:29:56Z
2026-05-08 09:34:58,61.1,51.4,30.07,NNE,33,5.7,13.2,70.4,0.00,,,0.00,522,2.4,n/a,2026-05-08T13:34:58Z
2026-05-08 09:39:56,61,50.6,30.07,NE,38,6.1,12.7,68.6,0.00,,,0.00,533,2.7,n/a,2026-05-08T13:39:56Z
2026-05-08 09:44:58,61.1,50.8,30.07,NNE,27,5.3,10.8,68.7,0.00,,,0.00,547,2.8,n/a,2026-05-08T13:44:58Z
2026-05-08 09:49:56,61.3,50.5,30.07,NE,38,4.9,12,67.7,0.00,,,0.00,557,3,n/a,2026-05-08T13:49:56Z
2026-05-08 09:54:58,61.7,51.2,30.07,NE,39,4.1,8.4,68.5,0.00,,,0.00,573,3.2,n/a,2026-05-08T13:54:58Z
2026-05-08 09:59:56,62.4,51.1,30.07,ENE,63,4.9,10.8,66.4,0.00,,,0.00,582,3.5,n/a,2026-05-08T13:59:56Z
2026-05-08 10:04:59,62.7,50.1,30.07,East,92,6.3,10.8,63.3,0.00,,,0.00,594,3.7,n/a,2026-05-08T14:04:59Z
2026-05-08 10:09:59,62.8,49.6,30.07,ENE,69,6.2,12,62.1,0.00,,,0.00,605,3.9,n/a,2026-05-08T14:09:59Z
2026-05-08 10:14:57,62.8,49.1,30.07,ENE,69,5.8,11.5,60.9,0.00,,,0.00,615,4,n/a,2026-05-08T14:14:57Z
2026-05-08 10:19:59,63,50.1,30.07,NE,53,3.7,6,62.6,0.00,,,0.00,626,4.3,n/a,2026-05-08T14:19:59Z
2026-05-08 10:24:56,63.7,51.3,30.07,East,91,3.9,7.2,64,0.00,,,0.00,638,4.5,n/a,2026-05-08T14:24:56Z
2026-05-08 10:29:58,64.5,51,30.07,East,85,4.4,8.4,61.6,0.00,,,0.00,649,4.6,n/a,2026-05-08T14:29:58Z
2026-05-08 10:34:56,64.4,49.2,30.07,ENE,76,6.6,13.2,57.8,0.00,,,0.00,656,4.8,n/a,2026-05-08T14:34:56Z
2026-05-08 10:39:58,64.1,49,30.07,East,84,5.2,12.7,57.9,0.00,,,0.00,664,4.9,n/a,2026-05-08T14:39:58Z
2026-05-08 10:44:59,64.2,49.3,30.08,ENE,77,4.7,11.5,58.4,0.00,,,0.00,673,5.1,n/a,2026-05-08T14:44:59Z
2026-05-08 10:49:57,64.3,49.3,30.08,NNE,32,4.2,8.4,58.1,0.00,,,0.00,684,5.2,n/a,2026-05-08T14:49:57Z
2026-05-08 10:54:59,64.8,49.5,30.08,East,84,5.2,10.8,57.8,0.00,,,0.00,693,5.3,n/a,2026-05-08T14:54:59Z
2026-05-08 10:59:57,64.9,48.2,30.08,East,91,4,8.1,54.7,0.00,,,0.00,700,5.5,n/a,2026-05-08T14:59:57Z
2026-05-08 11:04:56,65.2,48.6,30.08,East,84,4.2,13.2,55.1,0.00,,,0.00,707,5.6,n/a,2026-05-08T15:04:56Z
2026-05-08 11:09:56,64.9,47.5,30.08,ESE,112,6.3,12.7,53.4,0.00,,,0.00,715,5.7,n/a,2026-05-08T15:09:56Z
2026-05-08 11:14:58,64.5,46.7,30.08,ESE,107,5.9,12,52.6,0.00,,,0.00,722,5.9,n/a,2026-05-08T15:14:58Z
2026-05-08 11:19:56,65.1,47.6,30.08,SE,128,6.5,15,53.3,0.00,,,0.00,729,6,n/a,2026-05-08T15:19:56Z
2026-05-08 11:24:58,65.3,47.7,30.08,ESE,115,3.7,11.5,53,0.00,,,0.00,735,6.1,n/a,2026-05-08T15:24:58Z
2026-05-08 11:29:56,65.4,46.9,30.08,ESE,123,3.7,7.2,51.3,0.00,,,0.00,740,6.3,n/a,2026-05-08T15:29:56Z
2026-05-08 11:34:57,66.1,49.7,30.08,East,98,4.5,8.4,55.6,0.00,,,0.00,747,6.4,n/a,2026-05-08T15:34:57Z
2026-05-08 11:39:59,65.8,47.4,30.08,SE,136,5.5,10.8,51.4,0.00,,,0.00,754,6.5,n/a,2026-05-08T15:39:59Z
2026-05-08 11:44:57,65.6,46.6,30.08,SE,136,4.9,9.6,50.3,0.00,,,0.00,759,6.6,n/a,2026-05-08T15:44:57Z
2026-05-08 11:49:59,66.2,47,30.08,SE,129,5.6,9.6,49.9,0.00,,,0.00,763,6.7,n/a,2026-05-08T15:49:59Z
2026-05-08 11:54:56,66,46.8,30.08,ESE,102,4.9,13.2,49.8,0.00,,,0.00,772,6.8,n/a,2026-05-08T15:54:56Z
2026-05-08 11:59:58,66.2,47.2,30.08,East,98,4.9,12,50.4,0.00,,,0.00,772,6.9,n/a,2026-05-08T15:59:58Z
2026-05-08 12:04:56,66.5,46.8,30.07,ENE,73,4.2,11.5,49.1,0.00,,,0.00,777,7,n/a,2026-05-08T16:04:56Z
2026-05-08 12:09:56,66.4,47,30.07,East,91,2.6,8.4,49.7,0.00,,,0.00,779,7.1,n/a,2026-05-08T16:09:56Z
2026-05-08 12:14:59,66.7,46.8,30.07,NE,48,5.2,9.6,48.9,0.00,,,0.00,782,7.1,n/a,2026-05-08T16:14:59Z
2026-05-08 12:19:57,66.7,46.4,30.07,ESE,109,3.3,8.4,48.1,0.00,,,0.00,786,7.2,n/a,2026-05-08T16:19:57Z
2026-05-08 12:24:59,66.4,46.5,30.07,NW,318,3.1,10.8,48.8,0.00,,,0.00,791,7.3,n/a,2026-05-08T16:24:59Z
2026-05-08 12:29:56,66.7,46.8,30.07,NNE,28,5.4,10.8,48.8,0.00,,,0.00,793,7.3,n/a,2026-05-08T16:29:56Z
2026-05-08 12:34:58,67,47,30.07,NNE,18,2.7,6,48.7,0.00,,,0.00,793,7.4,n/a,2026-05-08T16:34:58Z
2026-05-08 12:39:57,67.1,49,30.07,SE,144,3,7.2,52.1,0.00,,,0.00,796,7.4,n/a,2026-05-08T16:39:57Z
2026-05-08 12:44:58,67.5,47.2,30.07,North,8,4.5,8.4,48.1,0.00,,,0.00,796,7.5,n/a,2026-05-08T16:44:58Z
2026-05-08 12:49:56,66.6,47.6,30.06,SSW,200,5.6,12,50.4,0.00,,,0.00,798,7.5,n/a,2026-05-08T16:49:56Z
2026-05-08 12:54:57,67.6,49.4,30.06,SSE,150,4.8,12,52.3,0.00,,,0.00,798,7.5,n/a,2026-05-08T16:54:57Z
2026-05-08 12:59:59,67.5,48.2,30.06,SSE,150,6.2,12,50.1,0.00,,,0.00,800,7.5,n/a,2026-05-08T16:59:59Z
2026-05-08 13:04:58,67.3,48,30.05,SE,133,6.2,12,50,0.00,,,0.00,802,7.5,n/a,2026-05-08T17:04:58Z
2026-05-08 13:09:59,67,46.9,30.05,South,187,5.3,10.8,48.5,0.00,,,0.00,800,7.5,n/a,2026-05-08T17:09:59Z
2026-05-08 13:14:58,67.5,47.4,30.05,ESE,117,6.1,10.4,48.6,0.00,,,0.00,816,7.5,n/a,2026-05-08T17:14:58Z
2026-05-08 13:19:59,67.7,46.2,30.04,SSE,153,3.5,7.2,46.1,0.00,,,0.00,803,7.5,n/a,2026-05-08T17:19:59Z
2026-05-08 13:24:57,67.6,45.1,30.04,ESE,111,3.8,8.4,44.3,0.00,,,0.00,803,7.6,n/a,2026-05-08T17:24:57Z
2026-05-08 13:29:59,67.8,45.6,30.04,ESE,113,2.4,6,44.9,0.00,,,0.00,796,7.5,n/a,2026-05-08T17:29:59Z
2026-05-08 13:34:56,68,46.4,30.04,ESE,108,4.3,8.4,45.9,0.00,,,0.00,802,7.5,n/a,2026-05-08T17:34:56Z
2026-05-08 13:39:59,68.4,47.6,30.04,NNE,32,3.4,8.1,47.7,0.00,,,0.00,802,7.5,n/a,2026-05-08T17:39:59Z
2026-05-08 13:44:56,68.5,47.4,30.04,South,187,3.4,7.2,47,0.00,,,0.00,793,7.4,n/a,2026-05-08T17:44:56Z
2026-05-08 13:49:58,68.3,46.3,30.04,SSE,157,2.5,8.4,45.4,0.00,,,0.00,795,7.4,n/a,2026-05-08T17:49:58Z
2026-05-08 13:54:56,68.5,46.8,30.04,East,88,2.4,4.8,45.8,0.00,,,0.00,784,7.3,n/a,2026-05-08T17:54:56Z
2026-05-08 13:59:58,68.7,47,30.04,North,354,4.3,7.2,45.9,0.00,,,0.00,782,7.2,n/a,2026-05-08T17:59:58Z
2026-05-08 14:04:57,69.4,49.4,30.04,North,352,4.4,10.8,49.1,0.00,,,0.00,773,7.1,n/a,2026-05-08T18:04:57Z
2026-05-08 14:09:57,68.8,48.2,30.04,SSE,148,5.8,10.8,47.9,0.00,,,0.00,766,7,n/a,2026-05-08T18:09:57Z
2026-05-08 14:14:59,68.7,47.3,30.04,South,181,6.1,13.2,46.4,0.00,,,0.00,761,6.8,n/a,2026-05-08T18:14:59Z
2026-05-08 14:19:57,68.8,47,30.03,South,178,4.8,12.7,45.8,0.00,,,0.00,759,6.7,n/a,2026-05-08T18:19:57Z
2026-05-08 14:24:58,68.9,46.5,30.03,SSW,207,3.1,11.5,44.7,0.00,,,0.00,747,6.5,n/a,2026-05-08T18:24:58Z
2026-05-08 14:29:56,69.8,47.8,30.03,NNE,12,1.5,4.8,45.7,0.00,,,0.00,745,6.5,n/a,2026-05-08T18:29:56Z
2026-05-08 14:34:57,70.2,47.8,30.03,SE,133,3.2,7.2,45,0.00,,,0.00,744,6.5,n/a,2026-05-08T18:34:57Z
2026-05-08 14:39:59,70.3,48.1,30.03,South,174,2.3,10.8,45.4,0.00,,,0.00,737,6.5,n/a,2026-05-08T18:39:59Z
2026-05-08 14:44:57,69.7,46.5,30.03,SSW,203,5.1,10.4,43.7,0.00,,,0.00,729,6.2,n/a,2026-05-08T18:44:57Z
2026-05-08 14:49:59,69.4,46,30.02,South,173,5.1,8.4,43.3,0.00,,,0.00,728,6.1,n/a,2026-05-08T18:49:59Z
2026-05-08 14:54:56,69.7,45.8,30.02,SSE,149,4,6,42.4,0.00,,,0.00,721,6,n/a,2026-05-08T18:54:56Z
2026-05-08 14:59:58,69.9,45.7,30.02,SE,131,4.5,7.2,42.1,0.00,,,0.00,715,5.9,n/a,2026-05-08T18:59:58Z
2026-05-08 15:04:57,70.5,45.7,30.02,SSE,157,3.5,10.8,41.2,0.00,,,0.00,701,5.8,n/a,2026-05-08T19:04:57Z
2026-05-08 15:09:57,69.8,45.1,30.02,SSW,197,4.4,10.4,41.1,0.00,,,0.00,696,5.7,n/a,2026-05-08T19:09:57Z
2026-05-08 15:14:56,69.7,44.7,30.02,South,171,4.6,12,40.7,0.00,,,0.00,693,5.6,n/a,2026-05-08T19:14:56Z
2026-05-08 15:19:57,70.2,47.1,30.01,South,179,3.8,14.4,43.7,0.00,,,0.00,687,5.5,n/a,2026-05-08T19:19:57Z
2026-05-08 15:24:56,70.3,46.8,30.01,SSW,195,6.4,15,43,0.00,,,0.00,680,5.3,n/a,2026-05-08T19:24:56Z
2026-05-08 15:29:58,70.3,46.2,30.01,SW,215,3.3,7.2,42.2,0.00,,,0.00,673,5.2,n/a,2026-05-08T19:29:58Z
2026-05-08 15:34:56,71,46.5,30.01,SW,217,3.6,6.9,41.7,0.00,,,0.00,657,4.9,n/a,2026-05-08T19:34:56Z
2026-05-08 15:39:59,71,46.4,30.01,WSW,245,3.3,7.2,41.5,0.00,,,0.00,654,4.8,n/a,2026-05-08T19:39:59Z
2026-05-08 15:44:58,71.4,48.1,30.01,NNE,17,2,5.8,43.6,0.00,,,0.00,638,4.7,n/a,2026-05-08T19:44:58Z
2026-05-08 15:49:56,71.2,47.3,30.00,SSE,168,4.6,8.4,42.5,0.00,,,0.00,642,4.6,n/a,2026-05-08T19:49:56Z
2026-05-08 15:54:56,70.6,46.2,30.00,SSE,167,5,13.2,41.8,0.00,,,0.00,610,4.5,n/a,2026-05-08T19:54:56Z
2026-05-08 15:59:57,70.7,45.7,30.00,South,190,2.8,12,40.9,0.00,,,0.00,601,4.5,n/a,2026-05-08T19:59:57Z
2026-05-08 16:04:57,70.9,46.9,30.00,SSE,150,5.5,12,42.3,0.00,,,0.00,617,4.3,n/a,2026-05-08T20:04:57Z
2026-05-08 16:09:56,71,46.2,30.00,South,180,3,6,41.1,0.00,,,0.00,594,4.2,n/a,2026-05-08T20:09:56Z
2026-05-08 16:14:56,71.3,47.1,30.00,ESE,115,3.9,6,42.1,0.00,,,0.00,582,4,n/a,2026-05-08T20:14:56Z
2026-05-08 16:16:33,71.6,47.5,29.99,ESE,104,1.9,3.6,42.4,0.00,,,0.00,571,3.9,n/a,2026-05-08T20:16:33Z
2026-05-08 16:29:57,72.2,46.2,29.99,SSE,161,6.6,13.2,39.6,0.00,,,0.00,543,3.6,n/a,2026-05-08T20:29:57Z
2026-05-08 16:34:58,71.4,45.8,29.99,SSW,194,4.7,12,40,0.00,,,0.00,533,3.4,n/a,2026-05-08T20:34:58Z
2026-05-08 16:39:59,71.3,46,29.99,SW,215,3.8,12,40.4,0.00,,,0.00,510,3.2,n/a,2026-05-08T20:39:59Z
2026-05-08 16:44:59,71.8,46.7,29.99,South,188,6.2,15,40.8,0.00,,,0.00,504,3,n/a,2026-05-08T20:44:59Z
2026-05-08 16:49:59,71.4,46.1,29.99,South,187,5,9.2,40.4,0.00,,,0.00,480,3,n/a,2026-05-08T20:49:59Z
2026-05-08 16:54:59,71.5,46.9,29.99,SW,219,2.9,6,41.6,0.00,,,0.00,457,2.8,n/a,2026-05-08T20:54:59Z
2026-05-08 16:59:57,71.9,47.2,29.99,SSW,197,3,7.2,41.5,0.00,,,0.00,457,2.7,n/a,2026-05-08T20:59:57Z
2026-05-08 17:04:56,72.2,47.8,29.98,SSW,206,2.6,6,42,0.00,,,0.00,396,2.5,n/a,2026-05-08T21:04:56Z
2026-05-08 17:09:57,72.3,46.7,29.98,SSW,212,2.9,7.2,40.1,0.00,,,0.00,364,2.3,n/a,2026-05-08T21:09:57Z
2026-05-08 17:14:58,72.3,46.6,29.98,SW,228,2.8,8.4,40.1,0.00,,,0.00,364,2,n/a,2026-05-08T21:14:58Z
2026-05-08 17:19:56,71.7,47.3,29.98,South,188,4.7,8.4,42,0.00,,,0.00,380,2.2,n/a,2026-05-08T21:19:56Z
2026-05-08 17:24:57,71.3,47.1,29.98,South,169,3.3,6,42.2,0.00,,,0.00,336,1.8,n/a,2026-05-08T21:24:57Z
2026-05-08 17:29:59,71.1,47.7,29.98,South,179,3.5,7.2,43.3,0.00,,,0.00,302,1.8,n/a,2026-05-08T21:29:59Z
2026-05-08 19:24:57,67.2,54.5,29.98,SSE,158,1.8,2.4,63.5,0.00,,,0.00,35,0,n/a,2026-05-08T23:24:57Z
2026-05-08 19:29:57,66.9,55,29.98,SE,146,1.3,2.4,65.6,0.00,,,0.00,33,0,n/a,2026-05-08T23:29:57Z
2026-05-08 19:34:56,66.3,55,29.98,ESE,118,1,2.4,67,0.00,,,0.00,30,0,n/a,2026-05-08T23:34:56Z
2026-05-08 19:39:59,65.8,54.5,29.98,SE,126,0.2,1.2,67.1,0.00,,,0.00,23,0,n/a,2026-05-08T23:39:59Z
2026-05-08 19:44:58,65.2,54.5,29.98,SE,127,0.8,1.2,68.2,0.00,,,0.00,18,0,n/a,2026-05-08T23:44:58Z
2026-05-08 19:49:59,64.7,55.1,29.98,SE,127,0.7,1.2,71,0.00,,,0.00,14,0,n/a,2026-05-08T23:49:59Z
2026-05-08 19:54:58,64.1,55.2,29.98,SE,127,0.5,1.2,72.9,0.00,,,0.00,9,0,n/a,2026-05-08T23:54:58Z
2026-05-08 19:59:56,63.5,55.3,29.99,SE,127,0.8,1.2,74.7,0.00,,,0.00,5,0,n/a,2026-05-08T23:59:56Z
2026-05-08 20:04:56,63,54.9,29.99,SE,127,0.2,1.2,75,0.00,,,0.00,0,0,n/a,2026-05-09T00:04:56Z
2026-05-08 20:09:56,62.5,54.5,29.99,SE,127,0.5,1.2,75,0.00,,,0.00,5,0,n/a,2026-05-09T00:09:56Z
2026-05-08 20:14:56,62,54.2,29.99,SE,127,0.4,1.2,75.7,0.00,,,0.00,5,0,n/a,2026-05-09T00:14:56Z
2026-05-08 20:19:58,61.5,54.4,29.99,SE,126,0.8,1.2,77.6,0.00,,,0.00,0,0,n/a,2026-05-09T00:19:58Z
2026-05-08 20:24:56,60.9,54.2,29.99,SE,127,0.9,1.2,78.5,0.00,,,0.00,0,0,n/a,2026-05-09T00:24:56Z
2026-05-08 20:29:59,60.4,54,29.99,SE,127,1.1,1.2,79.5,0.00,,,0.00,0,0,n/a,2026-05-09T00:29:59Z
2026-05-08 20:34:58,59.9,53.7,29.99,SE,127,0.2,1.2,80.1,0.00,,,0.00,0,0,n/a,2026-05-09T00:34:58Z
2026-05-08 20:39:57,59.5,53.6,29.99,SE,127,0.1,1.2,80.8,0.00,,,0.00,0,0,n/a,2026-05-09T00:39:57Z
2026-05-08 20:44:59,59.2,53.7,29.99,SE,126,0.8,1.2,82,0.00,,,0.00,0,0,n/a,2026-05-09T00:44:59Z
2026-05-08 20:49:57,58.9,53.5,29.99,SE,127,0.5,1.2,82.6,0.00,,,0.00,0,0,n/a,2026-05-09T00:49:57Z
2026-05-08 20:54:56,58.5,53.4,29.99,SE,127,0.3,1.2,83,0.00,,,0.00,0,0,n/a,2026-05-09T00:54:56Z
2026-05-08 20:59:58,58.2,53.3,30.00,SE,126,0.8,1.2,83.5,0.00,,,0.00,0,0,n/a,2026-05-09T00:59:58Z
2026-05-08 21:04:58,57.9,53.1,30.00,SE,127,0.6,1.2,84,0.00,,,0.00,0,0,n/a,2026-05-09T01:04:58Z
2026-05-08 21:09:59,57.6,52.8,30.00,SE,127,0,1.2,84,0.00,,,0.00,0,0,n/a,2026-05-09T01:09:59Z
2026-05-08 21:14:58,57.4,52.7,30.00,SE,126,0.4,1.2,84.6,0.00,,,0.00,0,0,n/a,2026-05-09T01:14:58Z
2026-05-08 21:19:56,57.1,52.6,30.00,SE,126,0.8,2.4,85,0.00,,,0.00,0,0,n/a,2026-05-09T01:19:56Z
2026-05-08 21:24:59,56.8,52.7,30.00,SE,126,1.1,2.4,85.9,0.00,,,0.00,0,0,n/a,2026-05-09T01:24:59Z
2026-05-08 21:29:56,56.5,52.4,30.01,SE,127,0,0,86,0.00,,,0.00,0,0,n/a,2026-05-09T01:29:56Z
2026-05-08 21:34:59,56.3,52.4,30.01,SSE,161,1.7,8.4,86.7,0.00,,,0.00,0,0,n/a,2026-05-09T01:34:59Z
2026-05-08 21:39:56,56.5,52.5,30.01,South,174,2.9,8.1,86.5,0.00,,,0.00,0,0,n/a,2026-05-09T01:39:56Z
2026-05-08 21:44:56,57.1,52.6,30.02,SE,144,2.1,4.8,85.1,0.00,,,0.00,0,0,n/a,2026-05-09T01:44:56Z
2026-05-08 21:49:57,57.6,52.6,30.02,SE,145,2.3,4.8,83.4,0.00,,,0.00,0,0,n/a,2026-05-09T01:49:57Z
2026-05-08 21:54:56,58,52.4,30.02,SSE,153,2.7,4.8,81.6,0.00,,,0.00,0,0,n/a,2026-05-09T01:54:56Z
2026-05-08 21:59:57,58.4,52.4,30.02,South,169,1.9,4.6,80.4,0.00,,,0.00,0,0,n/a,2026-05-09T01:59:57Z
2026-05-08 22:04:57,58.7,52.2,30.02,South,172,1.9,3.6,79.3,0.00,,,0.00,0,0,n/a,2026-05-09T02:04:57Z